Date String (YYYY-MM-DD hh:mm:ss) UTC,Instrument flags,Ambient pressure (hPa),Sample flow (lpm),Bypass flow (lpm),Sample temperature (°C),Ambient temperature (°C),ASC tube jacket temperature (°C),LED temperature (°C),Box temperature (°C),Sample RH (%),Span deviation,Mass concentration (μg/m³),Mass concentration (μg/m³),Mass concentration (μg/m³)
DateTimeUTC,F1_M11,P_M11,Q1_M11,Q2_M11,T1_M11,T2_M11,T3_M11,T4_M11,T5_M11,U1_M11,ZSPAN_M11,X0_M11,X2_M11,X1_M11
2022-11-03 09:00:00,,0815.9,5.00,0.00,27.6,25.9,00.0,36.5,29.4,07.1,0000.0,0009.13,0002.02,0001.35
2022-11-03 09:01:00,,0815.9,4.99,0.00,27.6,25.9,00.0,36.5,29.4,07.2,0000.0,0009.13,0002.03,0001.37
2022-11-03 09:02:00,,0816.0,4.99,0.00,27.6,25.9,00.0,36.5,29.4,07.2,0000.0,0009.17,0002.05,0001.38
2022-11-03 09:03:00,,0816.0,5.00,0.00,27.6,25.9,00.0,36.5,29.4,07.2,0000.0,0009.66,0002.15,0001.40
2022-11-03 09:04:00,,0816.0,5.01,0.00,27.6,25.9,00.0,36.5,29.4,07.1,0000.0,0009.88,0002.19,0001.41
2022-11-03 09:05:00,,0816.0,5.01,0.00,27.6,25.9,00.0,36.4,29.4,07.1,0000.0,0010.02,0002.26,0001.45
2022-11-03 09:06:00,,0816.0,4.98,0.00,27.6,25.9,00.0,36.4,29.4,07.2,0000.0,0010.02,0002.25,0001.46
2022-11-03 09:07:00,,0816.0,5.00,0.00,27.6,25.9,00.0,36.4,29.4,07.2,0000.0,0009.56,0002.25,0001.47
2022-11-03 09:08:00,,0816.0,5.00,0.00,27.6,25.9,00.0,36.4,29.3,07.3,0000.0,0008.33,0002.26,0001.48
2022-11-03 09:09:00,,0816.0,5.00,0.00,27.6,25.9,00.0,36.4,29.3,07.3,0000.0,0007.86,0002.26,0001.49
2022-11-03 09:10:00,,0816.0,5.00,0.00,27.5,25.9,00.0,36.4,29.3,07.2,0000.0,0008.26,0002.27,0001.48
2022-11-03 09:11:00,,0816.0,5.00,0.00,27.5,25.9,00.0,36.4,29.3,07.2,0000.0,0007.80,0002.23,0001.46
2022-11-03 09:12:00,,0816.0,5.00,0.00,27.5,25.8,00.0,36.4,29.3,07.2,0000.0,0008.09,0002.25,0001.45
2022-11-03 09:13:00,,0816.0,5.00,0.00,27.5,25.8,00.0,36.4,29.3,07.4,0000.0,0008.22,0002.23,0001.46
2022-11-03 09:14:00,,0815.9,5.00,0.00,27.5,25.8,00.0,36.4,29.3,07.3,0000.0,0007.48,0002.16,0001.46
2022-11-03 09:15:00,,0815.9,5.00,0.00,27.5,25.8,00.0,36.4,29.3,07.3,0000.0,0007.07,0002.17,0001.45
2022-11-03 09:16:00,,0815.9,5.00,0.00,27.5,25.8,00.0,36.4,29.2,07.3,0000.0,0006.79,0002.10,0001.43
2022-11-03 09:17:00,,0815.9,5.01,0.00,27.5,25.7,00.0,36.4,29.3,07.3,0000.0,0007.26,0002.16,0001.43
2022-11-03 09:18:00,,0815.9,5.00,0.00,27.4,25.7,00.0,36.3,29.2,07.2,0000.0,0007.71,0002.21,0001.43
2022-11-03 09:19:00,,0815.9,4.99,0.00,27.4,25.7,00.0,36.3,29.2,07.3,0000.0,0007.77,0002.16,0001.41
2022-11-03 09:20:00,,0815.9,5.00,0.00,27.4,25.7,00.0,36.3,29.2,07.3,0000.0,0007.52,0002.14,0001.41
2022-11-03 09:21:00,,0815.9,4.99,0.00,27.4,25.7,00.0,36.3,29.2,07.3,0000.0,0006.82,0002.13,0001.41
2022-11-03 09:22:00,,0815.8,5.01,0.00,27.4,25.6,00.0,36.3,29.2,07.4,0000.0,0007.23,0002.18,0001.43
2022-11-03 09:23:00,,0815.8,5.01,0.00,27.4,25.6,00.0,36.3,29.2,07.3,0000.0,0006.73,0002.18,0001.42
2022-11-03 09:24:00,,0815.8,4.98,0.00,27.4,25.6,00.0,36.3,29.2,07.3,0000.0,0006.08,0002.21,0001.40
2022-11-03 09:25:00,,0815.8,5.00,0.00,27.4,25.6,00.0,36.3,29.1,07.3,0000.0,0005.94,0002.19,0001.38
2022-11-03 09:26:00,,0815.8,5.00,0.00,27.4,25.6,00.0,36.2,29.1,07.2,0000.0,0006.41,0002.16,0001.38
2022-11-03 09:27:00,,0815.8,5.01,0.00,27.4,25.6,00.0,36.2,29.2,07.2,0000.0,0006.89,0002.20,0001.38
2022-11-03 09:28:00,,0815.8,5.02,0.00,27.3,25.7,00.0,36.2,29.2,07.2,0000.0,0006.87,0002.19,0001.39
2022-11-03 09:29:00,,0815.8,4.99,0.00,27.3,25.6,00.0,36.2,29.1,07.2,0000.0,0006.91,0002.18,0001.39
2022-11-03 09:30:00,,0815.8,5.00,0.00,27.3,25.6,00.0,36.2,29.1,07.3,0000.0,0007.61,0002.23,0001.39
2022-11-03 09:31:00,,0815.8,5.01,0.00,27.3,25.6,00.0,36.2,29.1,07.3,0000.0,0007.98,0002.27,0001.38
2022-11-03 09:32:00,,0815.9,5.01,0.00,27.3,25.6,00.0,36.2,29.1,07.3,0000.0,0007.95,0002.26,0001.38
2022-11-03 09:33:00,,0815.8,4.99,0.00,27.3,25.6,00.0,36.2,29.1,07.3,0000.0,0007.85,0002.21,0001.36
2022-11-03 09:34:00,,0815.9,4.99,0.00,27.3,25.6,00.0,36.2,29.1,07.3,0000.0,0008.13,0002.20,0001.36
2022-11-03 09:35:00,,0815.9,4.99,0.00,27.3,25.6,00.0,36.2,29.0,07.3,0000.0,0008.14,0002.16,0001.36
2022-11-03 09:36:00,,0815.9,5.01,0.00,27.3,25.6,00.0,36.1,29.1,07.3,0000.0,0008.42,0002.14,0001.36
2022-11-03 09:37:00,,0815.9,5.01,0.00,27.3,25.6,00.0,36.1,29.1,07.3,0000.0,0009.50,0002.17,0001.37
2022-11-03 09:38:00,,0815.8,4.99,0.00,27.3,25.6,00.0,36.2,29.1,07.2,0000.0,0009.51,0002.14,0001.38
2022-11-03 09:39:00,,0815.8,4.99,0.00,27.3,25.6,00.0,36.1,29.1,07.2,0000.0,0009.09,0002.08,0001.36
2022-11-03 09:40:00,,0815.7,5.00,0.00,27.3,25.6,00.0,36.1,29.1,07.2,0000.0,0008.73,0002.06,0001.36
2022-11-03 09:41:00,,0815.7,5.02,0.00,27.3,25.6,00.0,36.1,29.1,07.2,0000.0,0008.56,0002.11,0001.38
2022-11-03 09:42:00,,0815.7,4.98,0.00,27.3,25.6,00.0,36.1,29.1,07.2,0000.0,0008.66,0002.10,0001.38
2022-11-03 09:43:00,,0815.7,5.02,0.00,27.3,25.6,00.0,36.1,29.1,07.2,0000.0,0008.61,0002.14,0001.40
2022-11-03 09:44:00,,0815.7,5.01,0.00,27.3,25.6,00.0,36.1,29.1,07.3,0000.0,0008.62,0002.17,0001.43
2022-11-03 09:45:00,,0815.7,4.99,0.00,27.2,25.6,00.0,36.1,29.1,07.3,0000.0,0008.48,0002.21,0001.45
2022-11-03 09:46:00,,0815.6,5.02,0.00,27.2,25.5,00.0,36.1,29.0,07.3,0000.0,0008.38,0002.22,0001.47
2022-11-03 09:47:00,,0815.7,4.98,0.00,27.2,25.6,00.0,36.1,29.1,07.3,0000.0,0008.34,0002.24,0001.48
2022-11-03 09:48:00,,0815.9,5.01,0.00,27.2,25.6,00.0,36.1,29.1,07.3,0000.0,0007.63,0002.23,0001.48
2022-11-03 09:49:00,,0815.8,4.98,0.00,27.2,25.6,00.0,36.1,29.1,07.3,0000.0,0007.65,0002.22,0001.48
2022-11-03 09:50:00,,0815.9,5.00,0.00,27.2,25.6,00.0,36.1,29.1,07.3,0000.0,0007.79,0002.29,0001.49
2022-11-03 09:51:00,,0815.9,4.99,0.00,27.2,25.6,00.0,36.1,29.1,07.3,0000.0,0007.85,0002.31,0001.50
2022-11-03 09:52:00,,0815.8,5.00,0.00,27.2,25.6,00.0,36.1,29.1,07.3,0000.0,0007.45,0002.26,0001.50
2022-11-03 09:53:00,,0815.8,5.01,0.00,27.2,25.6,00.0,36.1,29.1,07.3,0000.0,0006.81,0002.25,0001.50
2022-11-03 09:54:00,,0815.8,5.00,0.00,27.2,25.6,00.0,36.1,29.1,07.3,0000.0,0007.87,0002.29,0001.51
2022-11-03 09:55:00,,0815.8,5.00,0.00,27.2,25.7,00.0,36.1,29.1,07.2,0000.0,0008.07,0002.33,0001.50
2022-11-03 09:56:00,,0815.8,5.00,0.00,27.2,25.7,00.0,36.1,29.1,07.3,0000.0,0008.63,0002.32,0001.49
2022-11-03 09:57:00,,0815.8,5.00,0.00,27.2,25.7,00.0,36.1,29.1,07.3,0000.0,0008.86,0002.30,0001.49
2022-11-03 09:58:00,,0815.8,5.01,0.00,27.2,25.7,00.0,36.1,29.1,07.3,0000.0,0009.04,0002.32,0001.49
2022-11-03 09:59:00,,0815.9,5.00,0.00,27.2,25.7,00.0,36.1,29.1,07.3,0000.0,0008.44,0002.33,0001.50
